Weather History for KSAV - June, 2013

Change the Weather History Date:

Wednesday, June 5, 2013

  Actual Average Record
Temperature  
Mean Temperature 76 °F 78 °F  
Max Temperature 80 °F 88 °F 101 °F (1943)
Min Temperature 71 °F 68 °F 55 °F (1954)
Degree Days  
Heating Degree Days 0 0  
Month to date heating degree days 0 0  
Since 1 June heating degree days 0 0  
Since 1 July heating degree days 1626 1812  
Cooling Degree Days 11 13  
Month to date cooling degree days 71 64  
Year to date cooling degree days 429 467  
Since 1 June cooling degree days 71 64  
Growing Degree Days 26 (Base 50)    
Moisture  
Dew Point 73 °F    
Average Humidity 84    
Maximum Humidity 94    
Minimum Humidity 74    
Precipitation  
Precipitation 1.40 in 0.18 in 2.29 in (1969)
Month to date precipitation 2.60 0.88  
Year to date precipitation 22.14 17.14  
Sea Level Pressure  
Sea Level Pressure 29.99 in    
Wind  
Wind Speed 6 mph (ESE)    
Max Wind Speed 20 mph    
Max Gust Speed 23 mph    
Visibility 8 miles    
Events Rain , Thunderstorm    
T = Trace of Precipitation, MM = Missing Value Source: NWS Daily Summary

Daily Weather History Graph

Daily Weather History Graph

Search for Another Location

Airport or City:

Trip Planner

Search our weather history database for the weather conditions in past years. The results will help you decide how hot, cold, wet, or windy it might be!

Date:

Astronomy

Jun. 05, 2013 Rise Set
Actual Time 6:18 AM EDT 8:28 PM EDT
Civil Twilight 5:50 AM EDT 8:56 PM EDT
Nautical Twilight 5:16 AM EDT 9:30 PM EDT
Astronomical Twilight 4:39 AM EDT 10:07 PM EDT
Moon 4:13 AM EDT (6/5) 6:00 PM EDT (6/5)
Length of Visible Light 15h 06m
Length of Day
14h 10m
Waning Crescent, 8% of the Moon is Illuminated
Jun 5
Waning Crescent
Jun 8
New
Jun 16
First Quarter
Jun 23
Full
Jun 30
Last Quarter

Hourly Weather History & Observations

Time (EDT) Temp. Heat Index Dew Point Humidity Pressure Visibility Wind Dir Wind Speed Gust Speed Precip Events Conditions
12:53 AM 75.9 °F - 73.0 °F 91% 30.00 in 10.0 mi Calm Calm - N/A   Clear
1:53 AM 75.9 °F - 73.0 °F 91% 29.99 in 10.0 mi Calm Calm - N/A   Clear
2:53 AM 75.9 °F - 73.0 °F 91% 29.98 in 10.0 mi Calm Calm - N/A   Clear
3:53 AM 75.0 °F - 73.0 °F 94% 29.99 in 10.0 mi East 3.5 mph - N/A   Clear
4:53 AM 75.0 °F - 73.0 °F 94% 29.99 in 10.0 mi ESE 3.5 mph - N/A   Clear
5:39 AM 75.2 °F - 71.6 °F 89% 30.00 in 10.0 mi Calm Calm - N/A   Mostly Cloudy
5:50 AM 75.2 °F - 71.6 °F 89% 29.99 in 10.0 mi Calm Calm - N/A   Overcast
5:51 AM 75.0 °F - 72.0 °F 90% 29.99 in 10.0 mi Calm Calm - N/A   Overcast
6:33 AM 75.2 °F - 73.4 °F 94% 30.00 in 8.0 mi NNE 4.6 mph - N/A   Overcast
6:53 AM 75.0 °F - 73.0 °F 94% 29.99 in 9.0 mi NE 4.6 mph - N/A   Overcast
7:53 AM 77.0 °F - 73.9 °F 90% 30.00 in 10.0 mi East 5.8 mph - N/A   Overcast
8:13 AM 78.8 °F - 75.2 °F 89% 30.01 in 10.0 mi East 4.6 mph - N/A   Overcast
8:53 AM 79.0 °F - 73.9 °F 84% 30.02 in 10.0 mi ESE 8.1 mph - N/A   Overcast
9:34 AM 80.6 °F 85.4 °F 73.4 °F 79% 30.01 in 10.0 mi ESE 10.4 mph - N/A   Overcast
9:53 AM 79.0 °F - 73.9 °F 84% 30.01 in 10.0 mi SE 6.9 mph - N/A   Overcast
10:53 AM 78.1 °F - 70.0 °F 76% 30.02 in 10.0 mi East 11.5 mph - 0.00 in   Mostly Cloudy
11:11 AM 75.2 °F - 71.6 °F 89% 30.02 in 1.5 mi East 18.4 mph - 0.05 in Rain Heavy Rain
11:15 AM 75.2 °F - 71.6 °F 89% 30.02 in 1.0 mi ENE 16.1 mph - 0.21 in Rain Heavy Rain
11:24 AM 75.2 °F - 71.6 °F 89% 30.02 in 4.0 mi NNE 12.7 mph - 0.30 in Rain , Thunderstorm Heavy Thunderstorms and Rain
11:43 AM 73.4 °F - 71.6 °F 94% 30.03 in 0.8 mi NNE 16.1 mph - 0.62 in Rain , Thunderstorm Heavy Thunderstorms and Rain
11:53 AM 73.0 °F - 71.1 °F 93% 30.03 in 1.8 mi NNE 12.7 mph - 0.84 in Rain , Thunderstorm Heavy Thunderstorms and Rain
12:21 PM 71.6 °F - 69.8 °F 94% 30.04 in 3.0 mi North 10.4 mph - 0.11 in Rain , Thunderstorm Heavy Thunderstorms and Rain
12:38 PM 71.6 °F - 69.8 °F 94% 30.04 in 4.0 mi North 8.1 mph - 0.24 in Rain , Thunderstorm Heavy Thunderstorms and Rain
12:53 PM 71.1 °F - 69.1 °F 93% 30.03 in 4.0 mi NNE 3.5 mph - 0.34 in Rain Rain
1:53 PM 75.0 °F - 72.0 °F 90% 29.99 in 7.0 mi SSE 5.8 mph - 0.10 in Rain Light Rain
2:53 PM 77.0 °F - 73.0 °F 88% 29.98 in 10.0 mi Calm Calm - 0.04 in Rain Light Rain
3:12 PM 78.8 °F - 73.4 °F 83% 29.98 in 8.0 mi Calm Calm - 0.00 in Rain Light Rain
3:53 PM 79.0 °F - 75.0 °F 88% 29.97 in 10.0 mi SE 6.9 mph - 0.01 in Rain Light Rain
4:00 PM 78.8 °F - 73.4 °F 83% 29.97 in 10.0 mi SE 5.8 mph - 0.00 in Rain Light Rain
4:07 PM 78.8 °F - 73.4 °F 83% 29.96 in 10.0 mi SE 5.8 mph - 0.00 in Rain Light Rain
4:30 PM 78.8 °F - 73.4 °F 83% 29.96 in 2.0 mi SE 6.9 mph - 0.02 in Rain Heavy Rain
4:37 PM 78.8 °F - 75.2 °F 89% 29.96 in 3.0 mi South 5.8 mph - 0.07 in Rain Light Rain
4:53 PM 79.0 °F - 75.0 °F 88% 29.95 in 10.0 mi SSE 8.1 mph - 0.07 in   Overcast
5:25 PM 78.8 °F - 75.2 °F 89% 29.95 in 10.0 mi SSE 6.9 mph - 0.00 in Rain Light Rain
5:53 PM 79.0 °F - 75.0 °F 88% 29.94 in 10.0 mi SE 6.9 mph - 0.00 in   Mostly Cloudy
6:53 PM 79.0 °F - 73.0 °F 82% 29.93 in 10.0 mi SSE 8.1 mph - N/A   Scattered Clouds
7:53 PM 79.0 °F - 73.0 °F 82% 29.94 in 10.0 mi South 5.8 mph - N/A   Scattered Clouds
8:53 PM 77.0 °F - 72.0 °F 84% 29.94 in 10.0 mi South 6.9 mph - N/A   Mostly Cloudy
9:53 PM 75.9 °F - 71.1 °F 85% 29.96 in 10.0 mi SSW 9.2 mph - N/A   Mostly Cloudy
10:34 PM 75.2 °F - 71.6 °F 89% 29.97 in 10.0 mi SW 6.9 mph - N/A   Mostly Cloudy
10:53 PM 75.0 °F - 71.1 °F 87% 29.97 in 10.0 mi SW 5.8 mph - N/A   Mostly Cloudy
11:53 PM 73.9 °F - 71.1 °F 91% 29.97 in 10.0 mi South 5.8 mph - N/A   Overcast